Startpagina
METAR-TAF:

METAR-TAF

Vliegvelden :

Productieplatform

L9-ff-1, Nederland

breedte: 53-36-52N, lengte: 4-57-37E, hoogte: 30 m

Actueel weer

Dit bericht is 11 minuten geleden gemaakt, om 12:25 UTC
Wind 29 kt uit het oosten
Temperatuur 14°C
Vochtigheid 77%
Druk 1017 hPa
Zicht 10 km of meer

METAR: EHMG 211225Z AUTO 08029KT 9999 NCD 14/10 Q1017 W///H///

Tijdstip: 14:36 (12:36 UTC)


TAF: ontbreekt

Waarnemingen en weersverwachtingen van meer dan 4000 vliegvelden (METAR en TAF).

De beschikbare stations zijn de gele en rode punten op de kaart.

Ga met uw muis naar het station om de naam te zien.

Klik dan om waarnemingen en weersverwachtingen te zien.

kaart wijzigen: klik op de groene knoppen met een zwart kruis om in te zoomen, op de groene knop met een streepje om uit te zoomen of op de groene pijlen voor aangrenzende kaarten.


METAR-TAF: